Regional Weather Roundup
Issued by NWS

Home | Current Version | Previous Version | Text Only | Print | Product List | Glossary Off
Versions: 1 2 3 4 5 6 7 8 9 10 11 12 13 14 15 16 17 18 19 20 21 22 23 24 25 26 27 28 29 30 31 32 33 34 35 36 37 38 39 40 41 42 43 44 45 46 47 48 49 50

123
ASUS43 KBIS 281502
RWRND

NORTH DAKOTA REGIONAL WEATHER ROUNDUP
NATIONAL WEATHER SERVICE BISMARCK ND
1000 AM CDT WED SEP 28 2016

NOTE: "FAIR" INDICATES FEW OR NO CLOUDS BELOW 12,000 FEET WITH NO
SIGNIFICANT WEATHER AND/OR OBSTRUCTIONS TO VISIBILITY.


NDZ001>003-009>011-017-281600-
NORTHWEST NORTH DAKOTA

CITY           SKY/WX    TMP DP  RH WIND       PRES   REMARKS
WILLISTON      SUNNY     53  47  79 N9        30.25R
MINOT          SUNNY     53  43  68 CALM      30.25R
MINOT AFB      SUNNY     50  42  73 E2        30.25R
$$

NDZ018>021-031>035-040>046-281600-
SOUTHWEST NORTH DAKOTA

CITY           SKY/WX    TMP DP  RH WIND       PRES   REMARKS
BISMARCK       SUNNY     48  42  80 E5        30.27R
DICKINSON      SUNNY     55  45  68 S3        30.22R
GARRISON         N/A     53  44  71 S3        30.25R
HETTINGER ARPT SUNNY     56  45  66 SE5       30.25R
$$

NDZ004>008-012>016-024-026-027-054-281600-
NORTHEAST NORTH DAKOTA

CITY           SKY/WX    TMP DP  RH WIND       PRES   REMARKS
GRAND FORKS    CLOUDY    50  44  80 NE3       30.29R
GRND FRKS AFB  SUNNY     50  44  80 NE2       30.29R
DEVILS LAKE    CLOUDY    48  45  89 CALM      30.29R
$$

NDZ022-023-025-028>030-036>039-047>053-281600-
SOUTHEAST NORTH DAKOTA

CITY           SKY/WX    TMP DP  RH WIND       PRES   REMARKS
FARGO          CLOUDY    50  45  83 N8        30.27R
JAMESTOWN      CLOUDY    48  44  86 N6        30.28R
$$





USA.gov is the U.S. government's official web portal to all federal, state and local government web resources and services.